Back to catalog

STARLINK-30954

AliveCommunicationsVLEO
NORAD 58407·PAYLOAD·🇺🇸 United States

Launched Nov 22, 2023 from Cape Canaveral Space Force Station

Loading…

Next Passes (next 24 hours)

TLE

FreshSource: CelesTrak SupGP

Epoch: Sep 14, 2026, 22:46 UTC

1 58407C 23180F   26257.94909722  .00057822  00000+0  20940-2 0  2579
2 58407  43.0004  63.6016 0001558 276.4035  25.8569 15.27554239    14

Track STARLINK-30954 in real time with AllMySat

Download on the App Store